Location: Gull Harbor
(47.1000°N, 122.9000°W)
Time: 19:45:42
(UTC-07:00)

ISS - Visible Passes

Search period start: 20 April 2024 00:00
Search period end: 30 April 2024 00:00
Orbit: 412 x 418 km, 51.6° (Epoch: 20 April)

Date Brightness Start Highest point End Pass type
(mag) Time Alt. Az. Time Alt. Az. Time Alt. Az.
21 Apr -1.3 05:03:19 10° S 05:05:21 15° SE 05:07:25 10° E visible
23 Apr -2.6 05:01:16 14° SSW 05:03:44 34° SE 05:06:48 10° ENE visible
24 Apr -2.1 04:14:03 20° SSE 04:14:46 22° SE 04:17:24 10° E visible
25 Apr -1.1 03:26:42 13° ESE 03:26:42 13° ESE 03:27:34 10° ESE visible
25 Apr -3.8 04:59:32 17° SW 05:01:59 76° SSE 05:05:19 10° ENE visible
26 Apr -3.3 04:12:04 40° S 04:12:46 48° SSE 04:16:00 10° ENE visible
27 Apr -2.1 03:24:29 26° ESE 03:24:29 26° ESE 03:26:31 10° E visible
27 Apr -3.4 04:57:18 14° W 05:00:04 59° NNW 05:03:23 10° ENE visible
28 Apr -3.8 04:09:37 42° WSW 04:10:37 82° NNW 04:13:58 10° ENE visible
29 Apr -3.1 03:21:49 50° E 03:21:49 50° E 03:24:28 10° ENE visible
29 Apr -2.7 04:54:47 10° W 04:57:58 40° N 05:01:09 10° ENE visible
